QPF
0.01 0.01 0.01 0.02 0.02 0.01 0.01 0.01 0.00 0.00 0.01 0.01 0.02 0.02 0.01 0.00 0.00 0.00 0.00 0.00 0.00 0.00 0.00 0.00 0.00 0.00 0.00 0.00 0.00 0.00 0.00 0.00 0.00 0.00 0.00 0.00 0.00 0.01 0.01 0.01 0.01 0.01 0.01
0.01 0.01 0.01 0.02 0.02 0.01 0.01 0.00 0.01 0.00 0.01 0.01 0.01 0.01 0.02 0.01 0.00 0.00 0.00 0.00 0.00 0.00 0.00 0.00 0.00 0.00 0.00 0.00 0.00 0.00 0.00 0.00 0.00 0.01 0.01 0.01 0.01 0.01 0.01 0.01 0.01 0.01 0.01
0.02 0.02 0.02 0.02 0.02 0.02 0.01 0.00 0.00 0.01 0.01 0.01 0.01 0.01 0.01 0.01 0.01 0.00 0.00 0.00 0.00 0.00 0.00 0.00 0.00 0.00 0.00 0.00 0.00 0.00 0.00 0.00 0.00 0.00 0.00 0.01 0.01 0.01 0.01 0.01 0.01 0.01 0.01
0.03 0.02 0.02 0.02 0.02 0.03 0.02 0.01 0.00 0.00 0.00 0.01 0.01 0.01 0.01 0.02 0.02 0.01 0.01 0.00 0.00 0.00 0.00 0.00 0.00 0.00 0.00 0.00 0.00 0.00 0.00 0.00 0.00 0.00 0.00 0.00 0.01 0.01 0.01 0.01 0.01 0.01 0.01
0.02 0.02 0.02 0.03 0.03 0.02 0.02 0.01 0.00 0.00 0.00 0.00 0.01 0.01 0.01 0.01 0.02 0.02 0.01 0.01 0.00 0.00 0.00 0.00 0.00 0.00 0.00 0.00 0.00 0.00 0.00 0.00 0.00 0.00 0.00 0.00 0.00 0.01 0.01 0.01 0.01 0.01 0.01
0.02 0.02 0.02 0.02 0.02 0.02 0.02 0.01 0.00 0.00 0.00 0.00 0.00 0.01 0.01 0.01 0.01 0.01 0.01 0.01 0.01 0.00 0.00 0.00 0.00 0.00 0.00 0.00 0.00 0.00 0.00 0.00 0.00 0.00 0.00 0.00 0.00 0.00 0.00 0.01 0.01 0.02 0.02
0.02 0.02 0.02 0.02 0.02 0.02 0.02 0.01 0.01 0.00 0.00 0.00 0.00 0.01 0.01 0.01 0.01 0.01 0.01 0.01 0.01 0.00 0.00 0.00 0.00 0.00 0.00 0.00 0.00 0.00 0.00 0.00 0.00 0.00 0.00 0.00 0.00 0.00 0.00 0.01 0.01 0.01 0.01
0.02 0.02 0.01 0.01 0.02 0.02 0.02 0.01 0.01 0.01 0.00 0.00 0.00 0.00 0.01 0.01 0.01 0.01 0.01 0.01 0.00 0.00 0.00 0.00 0.00 0.00 0.00 0.00 0.00 0.00 0.00 0.00 0.00 0.00 0.00 0.00 0.00 0.00 0.00 0.01 0.01 0.02 0.02
0.01 0.01 0.02 0.02 0.01 0.01 0.01 0.01 0.01 0.01 0.00 0.00 0.00 0.00 0.00 0.00 0.01 0.01 0.01 0.00 0.00 0.00 0.00 0.00 0.00 0.00 0.00 0.00 0.00 0.00 0.00 0.00 0.00 0.00 0.00 0.00 0.00 0.00 0.00 0.01 0.01 0.02 0.03
0.01 0.01 0.02 0.03 0.02 0.01 0.01 0.01 0.01 0.01 0.01 0.01 0.01 0.00 0.00 0.00 0.00 0.01 0.01 0.01 0.00 0.00 0.00 0.00 0.00 0.00 0.00 0.00 0.00 0.00 0.00 0.00 0.00 0.00 0.00 0.00 0.00 0.00 0.00 0.00 0.01 0.02 0.02
0.02 0.02 0.01 0.02 0.02 0.02 0.01 0.01 0.01 0.01 0.01 0.01 0.01 0.01 0.01 0.01 0.01 0.01 0.01 0.01 0.01 0.01 0.00 0.00 0.01 0.01 0.01 0.00 0.00 0.00 0.00 0.00 0.00 0.00 0.00 0.00 0.00 0.00 0.00 0.00 0.01 0.02 0.02
0.02 0.02 0.02 0.02 0.02 0.02 0.02 0.02 0.02 0.01 0.01 0.01 0.01 0.01 0.01 0.01 0.01 0.02 0.01 0.01 0.01 0.01 0.01 0.01 0.01 0.01 0.01 0.01 0.01 0.01 0.01 0.01 0.00 0.00 0.01 0.01 0.01 0.01 0.00 0.00 0.01 0.01 0.01
0.01 0.02 0.02 0.02 0.02 0.03 0.02 0.02 0.02 0.02 0.01 0.01 0.01 0.01 0.01 0.01 0.01 0.02 0.01 0.02 0.02 0.01 0.01 0.01 0.01 0.01 0.02 0.01 0.01 0.01 0.01 0.01 0.01 0.01 0.00 0.00 0.01 0.01 0.00 0.01 0.01 0.01 0.01
0.02 0.02 0.01 0.01 0.02 0.03 0.04 0.03 0.02 0.01 0.01 0.01 0.01 0.01 0.00 0.00 0.01 0.01 0.01 0.01 0.01 0.02 0.02 0.02 0.01 0.01 0.02 0.02 0.02 0.01 0.01 0.01 0.00 0.00 0.00 0.00 0.00 0.00 0.00 0.00 0.00 0.01 0.01
0.02 0.02 0.01 0.01 0.01 0.02 0.02 0.02 0.03 0.02 0.02 0.02 0.01 0.01 0.01 0.01 0.01 0.01 0.01 0.01 0.01 0.02 0.02 0.02 0.02 0.01 0.02 0.02 0.02 0.01 0.01 0.01 0.01 0.00 0.00 0.00 0.00 0.00 0.00 0.00 0.00 0.01 0.01
0.02 0.01 0.01 0.01 0.01 0.02 0.02 0.03 0.02 0.02 0.03 0.02 0.01 0.01 0.01 0.01 0.01 0.01 0.01 0.01 0.01 0.01 0.02 0.02 0.02 0.01 0.01 0.02 0.02 0.02 0.01 0.01 0.01 0.00 0.00 0.00 0.00 0.01 0.01 0.01 0.00 0.01 0.01
0.02 0.02 0.02 0.02 0.02 0.03 0.03 0.03 0.03 0.03 0.02 0.02 0.02 0.01 0.01 0.01 0.01 0.02 0.02 0.02 0.02 0.01 0.01 0.01 0.02 0.01 0.01 0.02 0.02 0.01 0.01 0.01 0.00 0.00 0.00 0.00 0.00 0.01 0.01 0.01 0.01 0.02 0.02
0.02 0.02 0.02 0.02 0.02 0.03 0.04 0.03 0.04 0.04 0.03 0.02 0.02 0.01 0.01 0.01 0.01 0.01 0.02 0.02 0.02 0.02 0.01 0.01 0.01 0.02 0.02 0.02 0.02 0.01 0.01 0.01 0.00 0.00 0.00 0.00 0.00 0.01 0.01 0.02 0.02 0.03 0.03
0.01 0.01 0.01 0.01 0.02 0.03 0.03 0.04 0.03 0.04 0.04 0.03 0.02 0.02 0.01 0.01 0.02 0.02 0.02 0.02 0.02 0.02 0.01 0.02 0.01 0.02 0.02 0.02 0.02 0.01 0.01 0.01 0.01 0.01 0.01 0.01 0.01 0.01 0.01 0.02 0.02 0.02 0.03
0.01 0.01 0.01 0.01 0.01 0.02 0.03 0.03 0.04 0.04 0.04 0.05 0.04 0.03 0.02 0.02 0.02 0.03 0.02 0.02 0.02 0.01 0.01 0.01 0.02 0.02 0.02 0.01 0.01 0.01 0.01 0.01 0.01 0.01 0.02 0.02 0.02 0.02 0.02 0.02 0.02 0.02 0.02
0.02 0.02 0.01 0.01 0.01 0.02 0.03 0.03 0.04 0.05 0.04 0.04 0.04 0.04 0.03 0.02 0.02 0.02 0.02 0.01 0.01 0.01 0.01 0.01 0.01 0.03 0.03 0.02 0.02 0.02 0.01 0.01 0.01 0.02 0.02 0.01 0.01 0.01 0.01 0.02 0.02 0.02 0.02
0.03 0.03 0.02 0.02 0.02 0.02 0.03 0.03 0.03 0.03 0.03 0.03 0.03 0.03 0.03 0.02 0.01 0.01 0.01 0.01 0.01 0.01 0.01 0.01 0.01 0.01 0.02 0.03 0.02 0.02 0.02 0.02 0.01 0.01 0.01 0.01 0.01 0.01 0.01 0.01 0.01 0.01 0.01
0.03 0.03 0.02 0.02 0.03 0.03 0.03 0.03 0.03 0.03 0.02 0.02 0.03 0.02 0.02 0.02 0.01 0.01 0.01 0.01 0.01 0.01 0.01 0.01 0.01 0.01 0.01 0.01 0.01 0.02 0.02 0.02 0.01 0.01 0.01 0.01 0.01 0.01 0.01 0.01 0.01 0.01 0.01
0.03 0.02 0.02 0.03 0.03 0.04 0.04 0.03 0.03 0.03 0.03 0.03 0.02 0.02 0.02 0.02 0.02 0.02 0.01 0.01 0.01 0.02 0.02 0.01 0.01 0.01 0.01 0.01 0.01 0.01 0.01 0.01 0.01 0.01 0.01 0.01 0.01 0.01 0.02 0.02 0.02 0.02 0.02
0.02 0.02 0.02 0.02 0.03 0.03 0.04 0.04 0.03 0.03 0.03 0.03 0.03 0.02 0.02 0.02 0.02 0.02 0.02 0.02 0.02 0.02 0.02 0.02 0.02 0.02 0.01 0.01 0.01 0.01 0.01 0.01 0.01 0.01 0.01 0.01 0.01 0.01 0.02 0.02 0.02 0.02 0.02
0.03 0.03 0.03 0.03 0.03 0.03 0.04 0.04 0.03 0.03 0.03 0.03 0.03 0.03 0.03 0.03 0.03 0.02 0.03 0.03 0.04 0.03 0.03 0.03 0.03 0.03 0.02 0.02 0.01 0.01 0.01 0.01 0.01 0.02 0.02 0.02 0.02 0.02 0.02 0.02 0.02 0.02 0.02
MSLP
1017.81 1018.20 1018.62 1019.03 1019.39 1019.65 1019.80 1019.84 1019.78 1019.63 1019.43 1019.20 1018.97 1018.74 1018.55 1018.39 1018.27 1018.20 1018.17 1018.18 1018.22 1018.29 1018.36 1018.43 1018.49 1018.52 1018.52 1018.49 1018.43 1018.35 1018.25 1018.14 1018.01 1017.84 1017.62 1017.33 1016.97 1016.52 1016.00 1015.42 1014.81 1014.20 1013.62
1018.09 1018.50 1018.94 1019.39 1019.79 1020.10 1020.30 1020.39 1020.37 1020.27 1020.10 1019.89 1019.68 1019.48 1019.30 1019.17 1019.07 1019.02 1019.00 1019.01 1019.03 1019.06 1019.08 1019.09 1019.08 1019.05 1019.00 1018.94 1018.88 1018.83 1018.79 1018.74 1018.68 1018.58 1018.41 1018.16 1017.80 1017.34 1016.77 1016.14 1015.45 1014.76 1014.09
1018.46 1018.90 1019.38 1019.85 1020.29 1020.64 1020.88 1021.01 1021.03 1020.96 1020.83 1020.65 1020.46 1020.28 1020.13 1020.03 1019.97 1019.94 1019.95 1019.97 1020.00 1020.02 1020.01 1019.98 1019.92 1019.84 1019.75 1019.66 1019.59 1019.55 1019.52 1019.51 1019.49 1019.43 1019.29 1019.06 1018.71 1018.24 1017.65 1016.97 1016.24 1015.48 1014.75
1018.86 1019.36 1019.88 1020.39 1020.86 1021.24 1021.52 1021.68 1021.74 1021.70 1021.59 1021.43 1021.27 1021.12 1021.00 1020.92 1020.89 1020.90 1020.94 1020.99 1021.04 1021.07 1021.06 1021.01 1020.93 1020.82 1020.70 1020.59 1020.50 1020.44 1020.41 1020.39 1020.38 1020.32 1020.20 1019.97 1019.62 1019.14 1018.54 1017.85 1017.09 1016.30 1015.52
1019.26 1019.83 1020.40 1020.96 1021.46 1021.88 1022.18 1022.38 1022.46 1022.45 1022.37 1022.24 1022.09 1021.96 1021.86 1021.80 1021.79 1021.83 1021.90 1021.99 1022.06 1022.11 1022.12 1022.09 1022.00 1021.89 1021.75 1021.61 1021.49 1021.40 1021.33 1021.29 1021.25 1021.17 1021.03 1020.79 1020.44 1019.96 1019.37 1018.68 1017.92 1017.13 1016.34
1019.62 1020.27 1020.91 1021.52 1022.06 1022.51 1022.85 1023.08 1023.20 1023.21 1023.16 1023.05 1022.92 1022.80 1022.70 1022.65 1022.65 1022.70 1022.79 1022.89 1023.00 1023.07 1023.11 1023.10 1023.03 1022.91 1022.76 1022.60 1022.45 1022.32 1022.21 1022.11 1022.02 1021.90 1021.73 1021.47 1021.11 1020.64 1020.06 1019.39 1018.66 1017.88 1017.11
1019.94 1020.67 1021.38 1022.04 1022.62 1023.11 1023.49 1023.76 1023.92 1023.97 1023.95 1023.87 1023.75 1023.63 1023.53 1023.47 1023.46 1023.50 1023.58 1023.69 1023.80 1023.90 1023.96 1023.97 1023.92 1023.81 1023.66 1023.49 1023.30 1023.12 1022.95 1022.80 1022.64 1022.47 1022.25 1021.97 1021.60 1021.14 1020.58 1019.95 1019.25 1018.52 1017.77
1020.22 1021.03 1021.79 1022.50 1023.13 1023.66 1024.09 1024.40 1024.61 1024.71 1024.73 1024.67 1024.57 1024.46 1024.34 1024.26 1024.22 1024.23 1024.29 1024.38 1024.49 1024.59 1024.66 1024.68 1024.64 1024.55 1024.40 1024.21 1023.99 1023.77 1023.54 1023.32 1023.10 1022.87 1022.60 1022.29 1021.91 1021.46 1020.93 1020.34 1019.69 1019.00 1018.29
1020.48 1021.35 1022.16 1022.90 1023.57 1024.14 1024.61 1024.98 1025.25 1025.41 1025.47 1025.45 1025.38 1025.26 1025.14 1025.03 1024.95 1024.92 1024.94 1024.99 1025.08 1025.16 1025.23 1025.26 1025.23 1025.14 1024.99 1024.79 1024.54 1024.28 1024.00 1023.72 1023.44 1023.15 1022.83 1022.49 1022.09 1021.64 1021.13 1020.57 1019.96 1019.31 1018.63
1020.75 1021.64 1022.47 1023.24 1023.93 1024.53 1025.05 1025.47 1025.80 1026.02 1026.14 1026.17 1026.12 1026.02 1025.90 1025.76 1025.65 1025.58 1025.55 1025.57 1025.62 1025.68 1025.74 1025.76 1025.73 1025.64 1025.49 1025.27 1025.01 1024.70 1024.38 1024.05 1023.70 1023.36 1022.99 1022.61 1022.19 1021.73 1021.23 1020.67 1020.08 1019.46 1018.80
1021.01 1021.90 1022.73 1023.50 1024.20 1024.83 1025.38 1025.85 1026.23 1026.51 1026.70 1026.78 1026.78 1026.70 1026.58 1026.45 1026.32 1026.21 1026.15 1026.13 1026.15 1026.19 1026.23 1026.24 1026.21 1026.12 1025.96 1025.73 1025.44 1025.10 1024.73 1024.35 1023.95 1023.54 1023.13 1022.70 1022.24 1021.76 1021.23 1020.68 1020.08 1019.46 1018.81
1021.27 1022.13 1022.94 1023.69 1024.38 1025.02 1025.60 1026.11 1026.53 1026.87 1027.11 1027.25 1027.30 1027.26 1027.17 1027.05 1026.92 1026.81 1026.73 1026.69 1026.70 1026.72 1026.74 1026.75 1026.71 1026.61 1026.43 1026.18 1025.87 1025.50 1025.09 1024.65 1024.20 1023.73 1023.26 1022.77 1022.27 1021.74 1021.18 1020.59 1019.98 1019.34 1018.67
1021.48 1022.30 1023.07 1023.80 1024.48 1025.12 1025.71 1026.24 1026.71 1027.09 1027.38 1027.57 1027.67 1027.68 1027.63 1027.53 1027.43 1027.33 1027.27 1027.24 1027.24 1027.26 1027.28 1027.28 1027.23 1027.12 1026.94 1026.67 1026.32 1025.91 1025.46 1024.96 1024.45 1023.92 1023.38 1022.83 1022.27 1021.68 1021.08 1020.45 1019.79 1019.11 1018.42
1021.62 1022.41 1023.14 1023.84 1024.51 1025.14 1025.74 1026.28 1026.77 1027.19 1027.51 1027.75 1027.89 1027.95 1027.94 1027.89 1027.83 1027.78 1027.74 1027.74 1027.77 1027.80 1027.83 1027.83 1027.78 1027.65 1027.44 1027.14 1026.76 1026.31 1025.80 1025.26 1024.68 1024.08 1023.48 1022.86 1022.23 1021.59 1020.93 1020.25 1019.54 1018.83 1018.11
1021.67 1022.43 1023.14 1023.83 1024.49 1025.12 1025.72 1026.27 1026.77 1027.20 1027.55 1027.81 1027.98 1028.09 1028.13 1028.14 1028.13 1028.13 1028.14 1028.18 1028.24 1028.30 1028.35 1028.35 1028.29 1028.15 1027.91 1027.58 1027.16 1026.66 1026.10 1025.49 1024.85 1024.20 1023.53 1022.85 1022.17 1021.47 1020.75 1020.02 1019.28 1018.53 1017.77
1021.60 1022.36 1023.08 1023.78 1024.45 1025.09 1025.69 1026.25 1026.75 1027.18 1027.54 1027.81 1028.01 1028.14 1028.23 1028.28 1028.33 1028.39 1028.46 1028.55 1028.65 1028.74 1028.80 1028.80 1028.73 1028.57 1028.31 1027.94 1027.47 1026.92 1026.31 1025.65 1024.96 1024.25 1023.53 1022.81 1022.07 1021.33 1020.58 1019.82 1019.05 1018.26 1017.48
1021.43 1022.22 1022.97 1023.70 1024.40 1025.06 1025.68 1026.24 1026.74 1027.17 1027.52 1027.80 1028.01 1028.17 1028.29 1028.39 1028.49 1028.60 1028.72 1028.85 1028.99 1029.10 1029.17 1029.17 1029.09 1028.90 1028.60 1028.19 1027.68 1027.09 1026.43 1025.73 1025.00 1024.25 1023.50 1022.75 1021.99 1021.23 1020.46 1019.68 1018.88 1018.09 1017.29
1021.17 1022.00 1022.81 1023.60 1024.34 1025.04 1025.68 1026.26 1026.76 1027.19 1027.54 1027.81 1028.03 1028.20 1028.35 1028.49 1028.63 1028.78 1028.94 1029.11 1029.27 1029.39 1029.46 1029.45 1029.34 1029.13 1028.79 1028.35 1027.80 1027.17 1026.49 1025.76 1025.00 1024.24 1023.48 1022.71 1021.95 1021.18 1020.41 1019.62 1018.82 1018.02 1017.20
1020.82 1021.71 1022.59 1023.44 1024.24 1024.99 1025.66 1026.26 1026.78 1027.21 1027.56 1027.85 1028.07 1028.26 1028.43 1028.60 1028.78 1028.96 1029.15 1029.34 1029.51 1029.63 1029.69 1029.66 1029.52 1029.27 1028.91 1028.43 1027.85 1027.21 1026.50 1025.76 1025.01 1024.25 1023.49 1022.73 1021.98 1021.22 1020.45 1019.67 1018.87 1018.05 1017.22
1020.39 1021.35 1022.29 1023.20 1024.06 1024.86 1025.57 1026.20 1026.74 1027.19 1027.56 1027.86 1028.11 1028.33 1028.53 1028.73 1028.94 1029.15 1029.36 1029.56 1029.72 1029.83 1029.87 1029.81 1029.64 1029.36 1028.96 1028.46 1027.87 1027.22 1026.52 1025.79 1025.05 1024.30 1023.57 1022.83 1022.09 1021.34 1020.58 1019.80 1018.99 1018.16 1017.31
1019.88 1020.89 1021.88 1022.85 1023.76 1024.60 1025.35 1026.02 1026.59 1027.07 1027.48 1027.82 1028.11 1028.36 1028.61 1028.85 1029.09 1029.32 1029.55 1029.75 1029.90 1029.99 1030.00 1029.91 1029.71 1029.39 1028.98 1028.47 1027.88 1027.23 1026.55 1025.84 1025.13 1024.42 1023.70 1022.99 1022.27 1021.53 1020.77 1019.98 1019.15 1018.29 1017.40
1019.27 1020.31 1021.33 1022.33 1023.28 1024.15 1024.95 1025.65 1026.26 1026.79 1027.25 1027.64 1027.99 1028.31 1028.61 1028.91 1029.18 1029.45 1029.69 1029.89 1030.03 1030.10 1030.08 1029.95 1029.72 1029.39 1028.96 1028.45 1027.87 1027.25 1026.59 1025.92 1025.25 1024.57 1023.88 1023.19 1022.47 1021.74 1020.97 1020.15 1019.30 1018.40 1017.47
1018.55 1019.60 1020.63 1021.64 1022.60 1023.50 1024.33 1025.07 1025.73 1026.32 1026.84 1027.30 1027.73 1028.13 1028.50 1028.85 1029.18 1029.49 1029.75 1029.95 1030.08 1030.13 1030.08 1029.93 1029.68 1029.33 1028.90 1028.40 1027.85 1027.25 1026.64 1026.01 1025.37 1024.72 1024.06 1023.38 1022.67 1021.92 1021.13 1020.29 1019.40 1018.46 1017.48
1017.73 1018.76 1019.79 1020.80 1021.76 1022.67 1023.51 1024.29 1025.00 1025.65 1026.24 1026.79 1027.30 1027.78 1028.24 1028.66 1029.05 1029.40 1029.68 1029.89 1030.02 1030.05 1029.98 1029.82 1029.55 1029.21 1028.78 1028.30 1027.78 1027.23 1026.66 1026.07 1025.47 1024.86 1024.22 1023.55 1022.83 1022.08 1021.26 1020.39 1019.46 1018.49 1017.47
1016.82 1017.84 1018.85 1019.84 1020.80 1021.71 1022.57 1023.37 1024.12 1024.83 1025.50 1026.13 1026.73 1027.30 1027.84 1028.34 1028.79 1029.18 1029.49 1029.72 1029.84 1029.87 1029.79 1029.62 1029.35 1029.01 1028.61 1028.15 1027.67 1027.16 1026.63 1026.09 1025.53 1024.95 1024.33 1023.67 1022.96 1022.19 1021.36 1020.47 1019.52 1018.52 1017.49
1015.85 1016.86 1017.86 1018.84 1019.79 1020.69 1021.56 1022.39 1023.18 1023.94 1024.67 1025.38 1026.06 1026.71 1027.33 1027.90 1028.41 1028.84 1029.18 1029.43 1029.56 1029.59 1029.51 1029.34 1029.08 1028.76 1028.38 1027.96 1027.52 1027.05 1026.58 1026.08 1025.56 1025.01 1024.41 1023.77 1023.06 1022.30 1021.47 1020.58 1019.63 1018.64 1017.62
Thickness
5697 5695 5694 5692 5690 5689 5687 5686 5685 5684 5682 5681 5680 5678 5677 5675 5674 5673 5672 5671 5669 5668 5667 5665 5664 5663 5661 5660 5658 5656 5654 5652 5647 5645 5645 5645 5644 5644 5643 5642 5641 5640 5639
5696 5693 5691 5690 5688 5686 5685 5684 5683 5682 5680 5679 5677 5676 5674 5672 5671 5670 5668 5667 5666 5664 5663 5662 5660 5660 5657 5656 5654 5652 5650 5649 5645 5642 5641 5640 5640 5639 5638 5638 5637 5636 5635
5693 5691 5688 5687 5686 5684 5684 5683 5681 5680 5678 5676 5675 5673 5671 5670 5668 5667 5666 5664 5662 5661 5660 5658 5657 5656 5653 5652 5650 5648 5647 5645 5642 5639 5636 5635 5635 5634 5633 5632 5632 5631 5630
5690 5688 5686 5685 5684 5683 5682 5680 5679 5677 5675 5674 5672 5671 5669 5667 5666 5665 5663 5661 5659 5658 5657 5656 5654 5653 5651 5649 5647 5645 5643 5640 5637 5634 5632 5630 5629 5628 5627 5625 5625 5624 5624
5688 5686 5685 5684 5683 5681 5679 5678 5677 5675 5673 5672 5670 5668 5666 5665 5664 5662 5660 5658 5656 5654 5653 5653 5652 5651 5650 5648 5646 5642 5640 5636 5633 5630 5627 5625 5623 5622 5621 5619 5618 5617 5618
5685 5684 5683 5681 5680 5678 5677 5675 5673 5672 5670 5668 5667 5665 5664 5664 5663 5661 5658 5656 5654 5651 5650 5649 5649 5648 5647 5645 5643 5641 5638 5634 5629 5626 5623 5621 5620 5618 5616 5614 5612 5611 5610
5681 5680 5679 5678 5676 5675 5674 5672 5670 5668 5667 5665 5663 5662 5661 5661 5660 5659 5657 5654 5651 5649 5647 5646 5646 5645 5643 5640 5639 5637 5634 5633 5630 5625 5621 5619 5617 5616 5612 5609 5607 5605 5604
5678 5677 5676 5674 5673 5671 5670 5668 5667 5666 5664 5662 5661 5659 5658 5658 5658 5656 5654 5651 5648 5646 5645 5643 5641 5640 5639 5636 5634 5631 5629 5627 5626 5623 5620 5618 5616 5613 5610 5606 5603 5600 5599
5674 5674 5673 5671 5669 5667 5666 5665 5664 5663 5661 5660 5659 5657 5655 5655 5655 5653 5651 5647 5644 5643 5642 5640 5638 5636 5635 5633 5629 5626 5623 5622 5621 5619 5617 5614 5612 5609 5606 5601 5596 5593 5592
5672 5672 5670 5669 5667 5665 5664 5663 5662 5660 5659 5658 5656 5655 5653 5652 5652 5650 5648 5644 5640 5639 5637 5636 5635 5633 5631 5629 5625 5621 5618 5617 5615 5613 5611 5609 5606 5603 5600 5596 5592 5587 5585
5670 5668 5667 5665 5664 5663 5661 5660 5658 5657 5655 5653 5652 5651 5650 5649 5648 5646 5644 5641 5638 5635 5633 5631 5630 5629 5627 5625 5621 5618 5616 5614 5610 5607 5604 5601 5599 5596 5593 5590 5587 5583 5579
5666 5664 5663 5662 5661 5660 5657 5655 5654 5652 5650 5649 5647 5645 5645 5644 5644 5642 5641 5638 5636 5632 5630 5628 5627 5625 5623 5620 5617 5615 5612 5608 5604 5600 5597 5594 5592 5589 5587 5585 5582 5579 5576
5660 5659 5658 5658 5656 5655 5654 5651 5649 5648 5646 5645 5643 5642 5641 5640 5639 5638 5637 5635 5632 5629 5627 5625 5623 5620 5617 5614 5612 5609 5605 5601 5597 5593 5590 5588 5586 5583 5581 5579 5576 5572 5569
5656 5654 5653 5653 5651 5650 5649 5648 5646 5644 5643 5642 5640 5639 5637 5636 5634 5633 5631 5629 5627 5624 5621 5619 5616 5613 5610 5608 5605 5602 5598 5595 5591 5588 5585 5582 5579 5576 5574 5571 5568 5564 5561
5651 5650 5649 5648 5646 5645 5644 5644 5644 5644 5644 5642 5640 5638 5635 5633 5634 5632 5628 5625 5622 5618 5614 5611 5607 5604 5601 5599 5597 5594 5591 5588 5584 5581 5578 5575 5572 5569 5566 5563 5559 5556 5552
5645 5644 5643 5642 5641 5640 5639 5638 5639 5640 5640 5640 5639 5636 5635 5634 5631 5627 5624 5621 5618 5614 5608 5604 5601 5598 5596 5593 5590 5587 5584 5581 5578 5575 5571 5568 5565 5562 5559 5555 5551 5547 5544
5641 5640 5638 5637 5636 5634 5633 5632 5631 5632 5633 5633 5632 5631 5630 5628 5625 5622 5618 5614 5610 5607 5602 5599 5596 5593 5590 5587 5584 5581 5578 5575 5571 5568 5564 5560 5557 5554 5550 5547 5543 5540 5537
5636 5635 5634 5632 5631 5630 5629 5628 5627 5626 5624 5624 5625 5624 5623 5621 5618 5615 5611 5605 5600 5598 5595 5593 5590 5587 5584 5581 5577 5574 5571 5567 5563 5560 5556 5553 5549 5546 5542 5539 5536 5533 5530
5629 5628 5627 5626 5625 5624 5623 5621 5620 5620 5619 5618 5616 5616 5615 5612 5610 5606 5602 5598 5595 5592 5589 5586 5583 5580 5577 5574 5570 5567 5563 5559 5556 5552 5549 5545 5542 5538 5534 5532 5529 5526 5523
5622 5623 5622 5620 5618 5616 5615 5614 5613 5612 5612 5611 5610 5609 5606 5602 5599 5597 5594 5591 5589 5586 5583 5579 5576 5573 5570 5566 5563 5559 5555 5552 5548 5545 5541 5538 5534 5531 5528 5525 5522 5519 5515
5615 5615 5615 5612 5610 5609 5608 5607 5607 5605 5604 5604 5603 5602 5600 5596 5594 5591 5588 5585 5583 5580 5577 5573 5570 5566 5563 5559 5555 5552 5548 5545 5542 5538 5534 5530 5527 5523 5520 5517 5514 5511 5507
5607 5606 5605 5603 5602 5601 5600 5600 5598 5597 5597 5595 5594 5592 5591 5588 5586 5584 5581 5579 5576 5573 5570 5566 5562 5559 5555 5552 5548 5545 5541 5538 5534 5530 5526 5522 5519 5516 5513 5509 5506 5503 5499
5599 5597 5596 5595 5594 5593 5591 5590 5589 5589 5588 5587 5586 5584 5582 5579 5577 5575 5573 5570 5567 5564 5561 5557 5554 5551 5547 5544 5541 5537 5534 5531 5527 5524 5519 5515 5511 5508 5505 5502 5498 5494 5491
5590 5588 5586 5585 5583 5582 5582 5581 5580 5580 5580 5579 5578 5576 5574 5571 5569 5566 5564 5561 5558 5555 5552 5549 5545 5542 5539 5535 5532 5529 5526 5523 5519 5515 5511 5507 5503 5500 5497 5494 5490 5487 5484
5580 5578 5577 5576 5574 5573 5572 5572 5572 5572 5571 5570 5569 5567 5564 5562 5560 5557 5554 5551 5548 5545 5542 5539 5535 5532 5529 5526 5523 5520 5517 5514 5510 5507 5503 5499 5495 5492 5489 5486 5483 5479 5475
5568 5568 5567 5566 5565 5564 5564 5564 5563 5563 5562 5561 5559 5557 5555 5553 5550 5547 5544 5541 5537 5534 5532 5529 5526 5523 5520 5517 5514 5511 5508 5505 5501 5498 5493 5490 5487 5484 5481 5477 5474 5470 5467